Find Starlink 37192

NORAD ID: 68342 Int'l Des: 2026-059 Owner: SPXS Country: US Constellation: starlink operational
LEOCIRCULAR

当前视图

正在加载3D地球...

About Starlink 37192

Starlink 37192 (NORAD 68342) is a starlink constellation satellite (v2 mini) launched Mar 22, 2026 by SPXS of US. It operates in LEO, CIRCULAR orbit with a mass of 575.00 kg.

关于 Starlink 37192

正在加载描述...

即将过境

Passes for default location (London). Set your location on the main map for personalized predictions.

高度历史

Loading altitude history...

两行轨道根数

1 68342U 26059X 26171.41439891 .00015827 00000-0 47840-3 0 9990
2 68342 53.1565 226.1232 0001635 91.5814 268.5376 15.34409779 13977
Epoch: Jun 20, 2026 • Age: 34 hours

当前状态

高度 472.1 km
速度 7.63 km/s
星下点 -29.17°S, 17.78°W
发射日期 Mar 22, 2026
运行时间 0.2 years
类型 internet

技术详情

分类 Payload
质量 575.00 kg
干质量 530.00 kg
总质量 575.00 kg
长度 0.30 m
直径 4.10 m
跨度 29.00 m
形状 Box + pan
制造商 SPXS
平台类型 Starlink V2MO
阶段状态 In Orbit
所有者/国家 SPXS/US

Most Searched